Home   Weather   Gänserndorf   Past weeks

Flag for Austria Past Weather in Gänserndorf, Lower Austria, Austria — Yesterday and Last 2 Weeks

Now
59 °F

Clear.


Feels Like: N/A
Forecast: 52 / 79 °F
Wind: N/A

Location: Wien / Schwechat-Flughafen

Current Time: Aug 31, 2016 at 2:38:03 AM

Latest Report: Aug 31, 2016 at 1:00 AM


Visibility: 28 mi

Pressure: 30.26 "Hg

Humidity: 71%

Dew Point: 50 °F

Location of GänserndorfLocation

Past Weather in Gänserndorf — Graph

°F

Gänserndorf Temperature Yesterday

Maximum temperature yesterday: 77 °F (at 4:00 PM)
Minimum temperature yesterday: 61 °F (at 11:00 PM)
Average temperature yesterday: 70 °F

High & Low Weather Summary for the Past Weeks

 TemperatureHumidityPressure
High85 °F (Aug 28, 2:00 PM)99% (Aug 16, 6:00 AM)30.35 "Hg (Aug 16, 6:00 AM)
Low54 °F (Aug 25, 6:00 AM)40% (Aug 26, 3:00 PM)29.81 "Hg (Aug 18, 4:00 PM)
Average68 °F69%30.08 "Hg
* Reported Aug 16 1:00 AM — Aug 31 1:00 AM, Gänserndorf, Weather by CustomWeather, © 2016

Note: Actual official high and low records may vary slightly from our data, if they occured in-between our weather recording intervals... More about our weather records

Advertising

Gänserndorf Weather History for the Previous 24 Hours

Scroll right to see more
 ConditionsComfort  
Time TempWeatherWind HumidityBarometerVisibility
1:00 AM
Wed, Aug 31
59 °FClear.N/A71%30.26 "Hg28 mi
12:00 AM57 °FClear.3 mph80%30.26 "Hg28 mi
11:00 PM
Tue, Aug 30
61 °FClear.N/A68%30.24 "Hg31 mi
10:00 PM64 °FPassing clouds.N/A60%30.22 "Hg28 mi
9:00 PM68 °FPassing clouds.N/A54%30.20 "Hg31 mi
8:00 PM70 °FPassing clouds.N/A48%30.19 "Hg28 mi
7:00 PM73 °FPassing clouds.5 mph47%30.16 "Hg25 mi
6:00 PM75 °FPassing clouds.6 mph44%30.17 "Hg25 mi
5:00 PM76 °FPassing clouds.6 mph46%30.17 "Hg19 mi
4:00 PM77 °FPassing clouds.7 mph44%30.18 "Hg13 mi
3:00 PM76 °FScattered clouds.7 mph42%30.19 "Hg15 mi
2:00 PM77 °FScattered clouds.6 mph44%30.20 "Hg14 mi
1:00 PM75 °FScattered clouds.6 mph53%30.21 "Hg22 mi
12:00 PM75 °FPartly sunny.6 mph55%30.21 "Hg13 mi
11:00 AM72 °FPassing clouds.6 mph61%30.22 "Hg12 mi
10:00 AM71 °FPassing clouds.6 mph68%30.21 "Hg16 mi
9:00 AM69 °FScattered clouds.5 mph70%30.19 "Hg18 mi
8:00 AM66 °FPartly sunny.5 mph76%30.18 "Hg22 mi
7:00 AM64 °FPartly sunny.3 mph83%30.16 "Hg19 mi
6:00 AM64 °FPassing clouds.3 mph83%30.14 "Hg25 mi
5:00 AM65 °FOvercast.N/A79%30.13 "Hg22 mi
4:00 AM65 °FOvercast.N/A78%30.12 "Hg28 mi
3:00 AM68 °FOvercast.6 mph74%30.11 "Hg25 mi
2:00 AM69 °FOvercast.7 mph71%30.10 "Hg28 mi
Weather by CustomWeather, © 2016

See weather overviewHow to use our weather pages